User: anonymous   Login
Location: Napier
(39.4830°S, 176.9170°E)
Time: 00:33:33
(UTC+13:00)
Language:

Cosmos 1709 Rocket - Orbit

View from above orbital plane
View from above orbital plane
View from above satellite
View from above satellite

Ground track
Ground track

The orbit data is extracted from the following two-line orbital elements,

1 16369U 85116B   19288.92905081 -.00000059 +00000-0 -75220-4 0  9994
2 16369 082.9358 075.4939 0035247 298.5886 172.2585 13.76842515698742
Epoch (UTC): 15 October 2019 22:17:49
Eccentricity: 0.0035247
inclination: 82.9358°
perigee height: 949 km
apogee height: 1001 km
right ascension of ascending node: 75.4939°
argument of perigee: 298.5886°
revolutions per day: 13.76842515
mean anomaly at epoch: 172.2585°
orbit number at epoch: 69874

The dashed part of the orbit path shows where the satellite is in the earth's shadow,  

DLR